Time,TemperatureF,DewpointF,PressureIn,WindDirection,WindDirectionDegrees,WindSpeedMPH,WindSpeedGustMPH,Humidity,HourlyPrecipIn,Conditions,Clouds,dailyrainin,SoftwareType,DateUTC
2013-04-14 00:00:00,44.2,40.0,29.87,South,183,0.0,0.0,85,0.00,,,0.00,WeatherCatV1.15B25,2013-04-14 04:00:00,
2013-04-14 00:01:00,44.2,40.0,29.87,South,183,0.0,0.0,85,0.00,,,0.00,WeatherCatV1.15B25,2013-04-14 04:01:00,
2013-04-14 00:06:00,44.2,40.3,29.87,South,183,0.0,0.0,86,0.00,,,0.00,WeatherCatV1.15B25,2013-04-14 04:06:00,
2013-04-14 00:11:00,44.1,39.9,29.87,South,183,0.0,0.0,85,0.00,,,0.00,WeatherCatV1.15B25,2013-04-14 04:11:00,
2013-04-14 00:16:00,43.9,40.0,29.88,South,183,0.0,0.0,86,0.00,,,0.00,WeatherCatV1.15B25,2013-04-14 04:16:00,
2013-04-14 00:21:00,43.9,40.0,29.88,South,183,0.0,0.0,86,0.00,,,0.00,WeatherCatV1.15B25,2013-04-14 04:21:00,
2013-04-14 00:26:00,43.9,40.0,29.88,South,183,0.0,0.0,86,0.00,,,0.00,WeatherCatV1.15B25,2013-04-14 04:26:00,
2013-04-14 00:31:00,44.0,40.4,29.89,South,183,0.0,0.0,87,0.00,,,0.00,WeatherCatV1.15B25,2013-04-14 04:31:00,
2013-04-14 00:36:00,44.0,40.4,29.89,South,183,0.0,0.0,87,0.00,,,0.00,WeatherCatV1.15B25,2013-04-14 04:36:00,
2013-04-14 00:41:00,43.9,40.3,29.89,South,183,0.0,0.0,87,0.00,,,0.00,WeatherCatV1.15B25,2013-04-14 04:41:00,
2013-04-14 00:46:00,43.9,40.3,29.89,South,183,0.0,0.0,87,0.00,,,0.00,WeatherCatV1.15B25,2013-04-14 04:46:00,
2013-04-14 00:51:00,44.0,40.7,29.89,South,183,0.0,0.0,88,0.00,,,0.00,WeatherCatV1.15B25,2013-04-14 04:51:00,
2013-04-14 00:56:00,44.0,40.7,29.89,South,183,0.0,0.0,88,0.00,,,0.00,WeatherCatV1.15B25,2013-04-14 04:56:00,
2013-04-14 01:01:00,44.0,40.4,29.89,South,183,0.0,0.0,87,0.00,,,0.00,WeatherCatV1.15B25,2013-04-14 05:01:00,
2013-04-14 01:06:00,44.1,40.2,29.88,South,183,0.0,0.0,86,0.00,,,0.00,WeatherCatV1.15B25,2013-04-14 05:06:00,
2013-04-14 01:11:00,44.2,40.3,29.88,South,183,0.0,0.0,86,0.00,,,0.00,WeatherCatV1.15B25,2013-04-14 05:11:00,
2013-04-14 01:16:00,44.1,40.2,29.88,South,183,0.0,0.0,86,0.00,,,0.00,WeatherCatV1.15B25,2013-04-14 05:16:00,
2013-04-14 01:21:00,44.0,39.8,29.87,South,183,0.0,0.0,85,0.00,,,0.00,WeatherCatV1.15B25,2013-04-14 05:21:00,
2013-04-14 01:26:00,43.9,39.7,29.88,South,183,0.0,0.0,85,0.00,,,0.00,WeatherCatV1.15B25,2013-04-14 05:26:00,
2013-04-14 01:31:00,43.8,39.9,29.87,South,183,0.0,0.0,86,0.00,,,0.00,WeatherCatV1.15B25,2013-04-14 05:31:00,
2013-04-14 01:36:00,43.6,39.7,29.87,South,183,0.0,0.0,86,0.00,,,0.00,WeatherCatV1.15B25,2013-04-14 05:36:00,
2013-04-14 01:41:00,43.4,39.2,29.87,South,183,0.0,0.0,85,0.00,,,0.00,WeatherCatV1.15B25,2013-04-14 05:41:00,
2013-04-14 01:46:00,43.3,39.1,29.87,South,183,0.0,0.0,85,0.00,,,0.00,WeatherCatV1.15B25,2013-04-14 05:46:00,
2013-04-14 01:51:00,43.0,38.8,29.87,South,183,0.0,0.0,85,0.00,,,0.00,WeatherCatV1.15B25,2013-04-14 05:51:00,
2013-04-14 01:56:00,42.8,38.9,29.87,South,183,0.0,0.0,86,0.00,,,0.00,WeatherCatV1.15B25,2013-04-14 05:56:00,
2013-04-14 02:01:00,42.5,38.9,29.87,South,183,0.0,0.0,87,0.00,,,0.00,WeatherCatV1.15B25,2013-04-14 06:01:00,
2013-04-14 02:06:00,42.2,38.6,29.87,South,183,0.0,0.0,87,0.00,,,0.00,WeatherCatV1.15B25,2013-04-14 06:06:00,
2013-04-14 02:11:00,42.0,38.4,29.87,South,183,0.0,0.0,87,0.00,,,0.00,WeatherCatV1.15B25,2013-04-14 06:11:00,
2013-04-14 02:16:00,41.7,38.4,29.87,South,183,0.0,0.0,88,0.00,,,0.00,WeatherCatV1.15B25,2013-04-14 06:16:00,
2013-04-14 02:21:00,41.4,38.1,29.86,South,183,0.0,0.0,88,0.00,,,0.00,WeatherCatV1.15B25,2013-04-14 06:21:00,
2013-04-14 02:26:00,41.1,37.8,29.86,South,183,0.0,0.0,88,0.00,,,0.00,WeatherCatV1.15B25,2013-04-14 06:26:00,
2013-04-14 02:31:00,40.9,37.9,29.86,South,183,0.0,0.0,89,0.00,,,0.00,WeatherCatV1.15B25,2013-04-14 06:31:00,
2013-04-14 02:36:00,40.5,37.5,29.86,South,183,0.0,0.0,89,0.00,,,0.00,WeatherCatV1.15B25,2013-04-14 06:36:00,
2013-04-14 02:41:00,40.2,37.5,29.86,South,183,0.0,0.0,90,0.00,,,0.00,WeatherCatV1.15B25,2013-04-14 06:41:00,
2013-04-14 02:46:00,39.9,37.2,29.86,South,183,0.0,0.0,90,0.00,,,0.00,WeatherCatV1.15B25,2013-04-14 06:46:00,
2013-04-14 02:51:00,39.6,37.2,29.86,South,183,0.0,0.0,91,0.00,,,0.00,WeatherCatV1.15B25,2013-04-14 06:51:00,
2013-04-14 02:56:00,39.4,37.3,29.87,South,183,0.0,0.0,92,0.00,,,0.00,WeatherCatV1.15B25,2013-04-14 06:56:00,
2013-04-14 03:01:00,39.2,37.1,29.87,South,183,0.0,1.0,92,0.00,,,0.00,WeatherCatV1.15B25,2013-04-14 07:01:00,
2013-04-14 03:06:00,39.1,37.0,29.87,South,183,0.0,0.0,92,0.00,,,0.00,WeatherCatV1.15B25,2013-04-14 07:06:00,
2013-04-14 03:11:00,39.0,36.9,29.87,South,183,0.0,0.0,92,0.00,,,0.00,WeatherCatV1.15B25,2013-04-14 07:11:00,
2013-04-14 03:16:00,38.8,36.7,29.87,South,183,0.0,0.0,92,0.00,,,0.00,WeatherCatV1.15B25,2013-04-14 07:16:00,
2013-04-14 03:21:00,38.7,36.6,29.87,South,183,0.0,0.0,92,0.00,,,0.00,WeatherCatV1.15B25,2013-04-14 07:21:00,
2013-04-14 03:26:00,38.6,36.5,29.87,South,183,0.0,0.0,92,0.00,,,0.00,WeatherCatV1.15B25,2013-04-14 07:26:00,
2013-04-14 03:31:00,38.4,36.6,29.88,South,183,0.0,0.0,93,0.00,,,0.00,WeatherCatV1.15B25,2013-04-14 07:31:00,
2013-04-14 03:36:00,38.4,36.6,29.88,South,183,0.0,0.0,93,0.00,,,0.00,WeatherCatV1.15B25,2013-04-14 07:36:00,
2013-04-14 03:41:00,38.3,36.5,29.87,South,183,0.0,0.0,93,0.00,,,0.00,WeatherCatV1.15B25,2013-04-14 07:41:00,
2013-04-14 03:46:00,38.3,36.5,29.87,South,183,0.0,0.0,93,0.00,,,0.00,WeatherCatV1.15B25,2013-04-14 07:46:00,
2013-04-14 03:51:00,38.2,36.4,29.87,South,183,0.0,0.0,93,0.00,,,0.00,WeatherCatV1.15B25,2013-04-14 07:51:00,
2013-04-14 03:56:00,38.0,36.2,29.87,South,183,0.0,0.0,93,0.00,,,0.00,WeatherCatV1.15B25,2013-04-14 07:56:00,
2013-04-14 04:01:00,38.0,36.2,29.87,South,183,0.0,0.0,93,0.00,,,0.00,WeatherCatV1.15B25,2013-04-14 08:01:00,
2013-04-14 04:06:00,38.0,36.4,29.87,South,183,0.0,0.0,94,0.00,,,0.00,WeatherCatV1.15B25,2013-04-14 08:06:00,
2013-04-14 04:11:00,38.0,36.4,29.88,South,183,0.0,0.0,94,0.00,,,0.00,WeatherCatV1.15B25,2013-04-14 08:11:00,
2013-04-14 04:16:00,38.0,36.4,29.88,South,183,0.0,0.0,94,0.00,,,0.00,WeatherCatV1.15B25,2013-04-14 08:16:00,
2013-04-14 04:21:00,38.2,36.6,29.88,South,183,0.0,0.0,94,0.00,,,0.00,WeatherCatV1.15B25,2013-04-14 08:21:00,
2013-04-14 04:26:00,38.4,36.8,29.89,South,183,0.0,0.0,94,0.00,,,0.00,WeatherCatV1.15B25,2013-04-14 08:26:00,
2013-04-14 04:31:00,38.4,36.8,29.89,South,183,0.0,0.0,94,0.00,,,0.00,WeatherCatV1.15B25,2013-04-14 08:31:00,
2013-04-14 04:36:00,38.5,36.9,29.88,South,183,0.0,0.0,94,0.00,,,0.00,WeatherCatV1.15B25,2013-04-14 08:36:00,
2013-04-14 04:41:00,38.6,37.0,29.88,South,183,0.0,0.0,94,0.00,,,0.00,WeatherCatV1.15B25,2013-04-14 08:41:00,
2013-04-14 04:46:00,38.7,37.1,29.88,South,183,0.0,0.0,94,0.00,,,0.00,WeatherCatV1.15B25,2013-04-14 08:46:00,
2013-04-14 04:51:00,38.8,37.2,29.88,South,183,0.0,0.0,94,0.00,,,0.00,WeatherCatV1.15B25,2013-04-14 08:51:00,
2013-04-14 04:56:00,38.9,37.3,29.88,South,183,0.0,0.0,94,0.00,,,0.00,WeatherCatV1.15B25,2013-04-14 08:56:00,
2013-04-14 05:01:00,38.9,37.3,29.88,South,183,0.0,0.0,94,0.00,,,0.00,WeatherCatV1.15B25,2013-04-14 09:01:00,
2013-04-14 05:06:00,39.0,37.4,29.89,South,183,0.0,0.0,94,0.00,,,0.00,WeatherCatV1.15B25,2013-04-14 09:06:00,
2013-04-14 05:11:00,39.2,37.6,29.89,South,183,0.0,0.0,94,0.00,,,0.00,WeatherCatV1.15B25,2013-04-14 09:11:00,
2013-04-14 05:16:00,39.4,37.5,29.89,South,183,0.0,0.0,93,0.00,,,0.00,WeatherCatV1.15B25,2013-04-14 09:16:00,
2013-04-14 05:21:00,39.5,37.6,29.89,South,183,0.0,0.0,93,0.00,,,0.00,WeatherCatV1.15B25,2013-04-14 09:21:00,
2013-04-14 05:26:00,39.6,37.7,29.89,South,183,0.0,0.0,93,0.00,,,0.00,WeatherCatV1.15B25,2013-04-14 09:26:00,
2013-04-14 05:31:00,39.7,37.8,29.89,South,183,0.0,0.0,93,0.00,,,0.00,WeatherCatV1.15B25,2013-04-14 09:31:00,
2013-04-14 05:36:00,39.8,37.9,29.89,South,183,0.0,0.0,93,0.00,,,0.00,WeatherCatV1.15B25,2013-04-14 09:36:00,
2013-04-14 05:41:00,39.8,37.7,29.89,South,183,0.0,0.0,92,0.00,,,0.00,WeatherCatV1.15B25,2013-04-14 09:41:00,
2013-04-14 05:46:00,39.9,37.8,29.89,South,183,0.0,0.0,92,0.00,,,0.00,WeatherCatV1.15B25,2013-04-14 09:46:00,
2013-04-14 05:51:00,39.9,37.8,29.89,South,183,0.0,0.0,92,0.00,,,0.00,WeatherCatV1.15B25,2013-04-14 09:51:00,
2013-04-14 05:56:00,39.9,37.8,29.89,South,183,0.0,0.0,92,0.00,,,0.00,WeatherCatV1.15B25,2013-04-14 09:56:00,
2013-04-14 06:01:00,39.9,37.8,29.89,South,183,0.0,0.0,92,0.00,,,0.00,WeatherCatV1.15B25,2013-04-14 10:01:00,
2013-04-14 06:06:00,40.0,37.9,29.90,South,183,0.0,0.0,92,0.00,,,0.00,WeatherCatV1.15B25,2013-04-14 10:06:00,
2013-04-14 06:11:00,40.0,37.9,29.90,South,183,0.0,0.0,92,0.00,,,0.00,WeatherCatV1.15B25,2013-04-14 10:11:00,
2013-04-14 06:16:00,40.0,37.9,29.90,South,183,0.0,0.0,92,0.00,,,0.00,WeatherCatV1.15B25,2013-04-14 10:16:00,
2013-04-14 06:21:00,40.1,38.0,29.90,South,183,0.0,0.0,92,0.00,,,0.00,WeatherCatV1.15B25,2013-04-14 10:21:00,
2013-04-14 06:26:00,40.2,38.1,29.90,South,183,0.0,0.0,92,0.00,,,0.00,WeatherCatV1.15B25,2013-04-14 10:26:00,
2013-04-14 06:31:00,40.2,38.1,29.90,South,183,0.0,0.0,92,0.00,,,0.00,WeatherCatV1.15B25,2013-04-14 10:31:00,
2013-04-14 06:36:00,40.2,38.1,29.89,South,183,0.0,0.0,92,0.00,,,0.00,WeatherCatV1.15B25,2013-04-14 10:36:00,
2013-04-14 06:41:00,40.3,38.2,29.90,South,183,0.0,0.0,92,0.00,,,0.00,WeatherCatV1.15B25,2013-04-14 10:41:00,
2013-04-14 06:46:00,40.4,38.3,29.90,South,183,0.0,0.0,92,0.00,,,0.00,WeatherCatV1.15B25,2013-04-14 10:46:00,
2013-04-14 06:51:00,40.5,38.4,29.90,South,183,0.0,0.0,92,0.00,,,0.00,WeatherCatV1.15B25,2013-04-14 10:51:00,
2013-04-14 06:56:00,40.7,38.3,29.90,South,183,0.0,0.0,91,0.00,,,0.00,WeatherCatV1.15B25,2013-04-14 10:56:00,
2013-04-14 07:01:00,40.8,38.4,29.90,South,183,0.0,0.0,91,0.00,,,0.00,WeatherCatV1.15B25,2013-04-14 11:01:00,
2013-04-14 07:06:00,40.9,38.5,29.91,South,183,0.0,0.0,91,0.00,,,0.00,WeatherCatV1.15B25,2013-04-14 11:06:00,
2013-04-14 07:11:00,41.0,38.6,29.91,South,183,0.0,0.0,91,0.00,,,0.00,WeatherCatV1.15B25,2013-04-14 11:11:00,
2013-04-14 07:16:00,41.2,38.8,29.91,South,183,0.0,0.0,91,0.00,,,0.00,WeatherCatV1.15B25,2013-04-14 11:16:00,
2013-04-14 07:21:00,41.4,38.7,29.91,South,183,0.0,0.0,90,0.00,,,0.00,WeatherCatV1.15B25,2013-04-14 11:21:00,
2013-04-14 07:26:00,41.7,39.0,29.91,South,183,0.0,0.0,90,0.00,,,0.00,WeatherCatV1.15B25,2013-04-14 11:26:00,
2013-04-14 07:31:00,42.1,39.1,29.91,South,183,0.0,0.0,89,0.00,,,0.00,WeatherCatV1.15B25,2013-04-14 11:31:00,
2013-04-14 07:36:00,42.7,38.8,29.91,West,265,0.0,1.0,86,0.00,,,0.00,WeatherCatV1.15B25,2013-04-14 11:36:00,
2013-04-14 07:41:00,43.3,38.8,29.92,West,265,0.0,0.0,84,0.00,,,0.00,WeatherCatV1.15B25,2013-04-14 11:41:00,
2013-04-14 07:46:00,43.9,38.8,29.92,WSW,254,0.0,1.0,82,0.00,,,0.00,WeatherCatV1.15B25,2013-04-14 11:46:00,
2013-04-14 07:51:00,44.3,38.5,29.92,SSW,207,3.0,3.0,80,0.00,,,0.00,WeatherCatV1.15B25,2013-04-14 11:51:00,
2013-04-14 07:56:00,44.9,38.8,29.92,WSW,239,0.0,2.0,79,0.00,,,0.00,WeatherCatV1.15B25,2013-04-14 11:56:00,
2013-04-14 08:01:00,45.3,38.5,29.91,WSW,238,0.0,0.0,77,0.00,,,0.00,WeatherCatV1.15B25,2013-04-14 12:01:00,
2013-04-14 08:06:00,45.6,38.5,29.91,WSW,238,0.0,0.0,76,0.00,,,0.00,WeatherCatV1.15B25,2013-04-14 12:06:00,
2013-04-14 08:11:00,45.9,38.4,29.91,WSW,238,0.0,0.0,75,0.00,,,0.00,WeatherCatV1.15B25,2013-04-14 12:11:00,
2013-04-14 08:16:00,46.1,37.6,29.91,West,263,1.0,3.0,72,0.00,,,0.00,WeatherCatV1.15B25,2013-04-14 12:16:00,
2013-04-14 08:21:00,46.3,37.4,29.91,West,259,0.0,0.0,71,0.00,,,0.00,WeatherCatV1.15B25,2013-04-14 12:21:00,
2013-04-14 08:26:00,46.5,37.6,29.91,West,259,0.0,0.0,71,0.00,,,0.00,WeatherCatV1.15B25,2013-04-14 12:26:00,
2013-04-14 08:31:00,46.9,37.6,29.91,West,259,0.0,0.0,70,0.00,,,0.00,WeatherCatV1.15B25,2013-04-14 12:31:00,
2013-04-14 08:36:00,47.2,37.6,29.91,WSW,257,1.0,1.0,69,0.00,,,0.00,WeatherCatV1.15B25,2013-04-14 12:36:00,
2013-04-14 08:41:00,47.0,37.0,29.92,WSW,256,0.0,1.0,68,0.00,,,0.00,WeatherCatV1.15B25,2013-04-14 12:41:00,
2013-04-14 08:46:00,47.0,37.0,29.92,SSW,212,0.0,5.0,68,0.00,,,0.00,WeatherCatV1.15B25,2013-04-14 12:46:00,
2013-04-14 08:51:00,47.4,37.4,29.92,WSW,246,1.0,7.0,68,0.00,,,0.00,WeatherCatV1.15B25,2013-04-14 12:51:00,
2013-04-14 08:56:00,48.0,37.2,29.92,WNW,287,0.0,3.0,66,0.00,,,0.00,WeatherCatV1.15B25,2013-04-14 12:56:00,
2013-04-14 09:01:00,48.3,37.1,29.92,West,259,3.0,5.0,65,0.00,,,0.00,WeatherCatV1.15B25,2013-04-14 13:01:00,
2013-04-14 09:06:00,48.6,37.8,29.91,NW,304,2.0,2.0,66,0.00,,,0.00,WeatherCatV1.15B25,2013-04-14 13:06:00,
2013-04-14 09:11:00,48.8,36.8,29.91,WSW,254,5.0,6.0,63,0.00,,,0.00,WeatherCatV1.15B25,2013-04-14 13:11:00,
2013-04-14 09:16:00,48.9,36.5,29.91,WSW,252,0.0,4.0,62,0.00,,,0.00,WeatherCatV1.15B25,2013-04-14 13:16:00,
2013-04-14 09:21:00,49.6,37.1,29.91,West,265,1.0,3.0,62,0.00,,,0.00,WeatherCatV1.15B25,2013-04-14 13:21:00,
2013-04-14 09:26:00,50.3,37.0,29.91,WNW,283,1.0,5.0,60,0.00,,,0.00,WeatherCatV1.15B25,2013-04-14 13:26:00,
2013-04-14 09:31:00,50.3,37.0,29.91,West,278,1.0,3.0,60,0.00,,,0.00,WeatherCatV1.15B25,2013-04-14 13:31:00,
2013-04-14 09:36:00,50.1,37.2,29.91,West,273,1.0,2.0,61,0.00,,,0.00,WeatherCatV1.15B25,2013-04-14 13:36:00,
2013-04-14 09:41:00,50.0,37.1,29.92,WSW,246,0.0,4.0,61,0.00,,,0.00,WeatherCatV1.15B25,2013-04-14 13:41:00,
2013-04-14 09:46:00,49.8,36.9,29.91,SW,231,3.0,5.0,61,0.00,,,0.00,WeatherCatV1.15B25,2013-04-14 13:46:00,
2013-04-14 09:51:00,49.7,36.8,29.92,West,267,3.0,4.0,61,0.00,,,0.00,WeatherCatV1.15B25,2013-04-14 13:51:00,
2013-04-14 09:56:00,49.7,36.8,29.92,NW,304,4.0,5.0,61,0.00,,,0.00,WeatherCatV1.15B25,2013-04-14 13:56:00,
2013-04-14 10:01:00,49.8,36.1,29.92,West,279,1.0,7.0,59,0.00,,,0.00,WeatherCatV1.15B25,2013-04-14 14:01:00,
2013-04-14 10:06:00,49.7,36.4,29.92,West,275,0.0,1.0,60,0.00,,,0.00,WeatherCatV1.15B25,2013-04-14 14:06:00,
2013-04-14 10:11:00,49.6,35.0,29.92,West,263,1.0,6.0,57,0.00,,,0.00,WeatherCatV1.15B25,2013-04-14 14:11:00,
2013-04-14 10:16:00,49.2,35.1,29.92,WSW,248,5.0,7.0,58,0.00,,,0.00,WeatherCatV1.15B25,2013-04-14 14:16:00,
2013-04-14 10:21:00,48.8,35.1,29.93,West,277,3.0,7.0,59,0.00,,,0.00,WeatherCatV1.15B25,2013-04-14 14:21:00,
2013-04-14 10:26:00,48.5,35.3,29.93,WNW,283,2.0,3.0,60,0.00,,,0.00,WeatherCatV1.15B25,2013-04-14 14:26:00,
2013-04-14 10:31:00,48.1,34.5,29.93,WNW,296,2.0,12.0,59,0.00,,,0.00,WeatherCatV1.15B25,2013-04-14 14:31:00,
2013-04-14 10:36:00,47.9,33.8,29.93,West,278,3.0,7.0,58,0.00,,,0.00,WeatherCatV1.15B25,2013-04-14 14:36:00,
2013-04-14 10:41:00,48.0,34.4,29.93,WNW,287,0.0,3.0,59,0.00,,,0.00,WeatherCatV1.15B25,2013-04-14 14:41:00,
2013-04-14 10:46:00,48.1,34.0,29.93,West,268,2.0,6.0,58,0.00,,,0.00,WeatherCatV1.15B25,2013-04-14 14:46:00,
2013-04-14 10:51:00,48.1,34.0,29.93,NW,319,7.0,7.0,58,0.00,,,0.00,WeatherCatV1.15B25,2013-04-14 14:51:00,
2013-04-14 10:56:00,48.1,33.6,29.94,West,273,3.0,5.0,57,0.00,,,0.00,WeatherCatV1.15B25,2013-04-14 14:56:00,
2013-04-14 11:01:00,48.1,33.6,29.94,West,281,3.0,6.0,57,0.00,,,0.00,WeatherCatV1.15B25,2013-04-14 15:01:00,
2013-04-14 11:06:00,48.0,33.5,29.94,WNW,288,2.0,5.0,57,0.00,,,0.00,WeatherCatV1.15B25,2013-04-14 15:06:00,
2013-04-14 11:11:00,48.0,33.1,29.94,West,261,2.0,3.0,56,0.00,,,0.00,WeatherCatV1.15B25,2013-04-14 15:11:00,
2013-04-14 11:16:00,48.0,33.1,29.94,WSW,252,3.0,4.0,56,0.00,,,0.00,WeatherCatV1.15B25,2013-04-14 15:16:00,
2013-04-14 11:21:00,48.0,32.2,29.94,SSW,211,1.0,6.0,54,0.00,,,0.00,WeatherCatV1.15B25,2013-04-14 15:21:00,
2013-04-14 11:26:00,47.9,32.1,29.94,West,274,5.0,7.0,54,0.00,,,0.00,WeatherCatV1.15B25,2013-04-14 15:26:00,
2013-04-14 11:31:00,47.6,32.2,29.94,West,265,4.0,6.0,55,0.00,,,0.00,WeatherCatV1.15B25,2013-04-14 15:31:00,
2013-04-14 11:36:00,47.4,32.1,29.94,WNW,292,0.0,3.0,55,0.00,,,0.00,WeatherCatV1.15B25,2013-04-14 15:36:00,
2013-04-14 11:41:00,47.5,33.0,29.94,South,186,1.0,4.0,57,0.00,,,0.00,WeatherCatV1.15B25,2013-04-14 15:41:00,
2013-04-14 11:46:00,47.8,33.7,29.94,SSE,156,4.0,4.0,58,0.00,,,0.00,WeatherCatV1.15B25,2013-04-14 15:46:00,
2013-04-14 11:51:00,47.8,32.9,29.94,South,191,0.0,5.0,56,0.00,,,0.00,WeatherCatV1.15B25,2013-04-14 15:51:00,
2013-04-14 11:56:00,47.7,33.2,29.94,West,269,2.0,8.0,57,0.00,,,0.00,WeatherCatV1.15B25,2013-04-14 15:56:00,
2013-04-14 12:01:00,48.0,33.9,29.94,WNW,290,1.0,7.0,58,0.00,,,0.00,WeatherCatV1.15B25,2013-04-14 16:01:00,
2013-04-14 12:06:00,48.5,34.0,29.94,WSW,246,1.0,8.0,57,0.00,,,0.00,WeatherCatV1.15B25,2013-04-14 16:06:00,
2013-04-14 12:11:00,48.5,33.1,29.93,West,268,0.0,9.0,55,0.00,,,0.00,WeatherCatV1.15B25,2013-04-14 16:11:00,
2013-04-14 12:16:00,48.9,33.5,29.93,SW,215,4.0,7.0,55,0.00,,,0.00,WeatherCatV1.15B25,2013-04-14 16:16:00,
2013-04-14 12:21:00,49.4,33.5,29.93,West,280,1.0,6.0,54,0.00,,,0.00,WeatherCatV1.15B25,2013-04-14 16:21:00,
2013-04-14 12:26:00,49.4,33.5,29.93,WNW,283,1.0,4.0,54,0.00,,,0.00,WeatherCatV1.15B25,2013-04-14 16:26:00,
2013-04-14 12:31:00,49.4,33.5,29.93,West,259,0.0,6.0,54,0.00,,,0.00,WeatherCatV1.15B25,2013-04-14 16:31:00,
2013-04-14 12:36:00,49.3,32.9,29.93,SSE,158,2.0,5.0,53,0.00,,,0.00,WeatherCatV1.15B25,2013-04-14 16:36:00,
2013-04-14 12:41:00,49.4,33.0,29.93,West,265,3.0,10.0,53,0.00,,,0.00,WeatherCatV1.15B25,2013-04-14 16:41:00,
2013-04-14 12:46:00,49.0,32.1,29.93,NW,325,2.0,7.0,52,0.00,,,0.00,WeatherCatV1.15B25,2013-04-14 16:46:00,
2013-04-14 12:51:00,49.1,31.8,29.93,West,280,2.0,9.0,51,0.00,,,0.00,WeatherCatV1.15B25,2013-04-14 16:51:00,
2013-04-14 12:56:00,49.2,31.9,29.93,NW,305,2.0,5.0,51,0.00,,,0.00,WeatherCatV1.15B25,2013-04-14 16:56:00,
2013-04-14 13:01:00,49.2,31.9,29.93,WNW,302,0.0,5.0,51,0.00,,,0.00,WeatherCatV1.15B25,2013-04-14 17:01:00,
2013-04-14 13:06:00,49.4,31.5,29.93,West,263,2.0,8.0,50,0.00,,,0.00,WeatherCatV1.15B25,2013-04-14 17:06:00,
2013-04-14 13:11:00,49.7,32.3,29.93,South,173,3.0,3.0,51,0.00,,,0.00,WeatherCatV1.15B25,2013-04-14 17:11:00,
2013-04-14 13:16:00,50.0,32.1,29.93,South,172,0.0,6.0,50,0.00,,,0.00,WeatherCatV1.15B25,2013-04-14 17:16:00,
2013-04-14 13:21:00,50.0,31.1,29.93,WNW,291,0.0,9.0,48,0.00,,,0.00,WeatherCatV1.15B25,2013-04-14 17:21:00,
2013-04-14 13:26:00,49.9,31.0,29.93,SSW,193,1.0,4.0,48,0.00,,,0.00,WeatherCatV1.15B25,2013-04-14 17:26:00,
2013-04-14 13:31:00,50.1,31.2,29.93,West,269,3.0,5.0,48,0.00,,,0.00,WeatherCatV1.15B25,2013-04-14 17:31:00,
2013-04-14 13:36:00,50.4,30.9,29.93,WSW,254,0.0,1.0,47,0.00,,,0.00,WeatherCatV1.15B25,2013-04-14 17:36:00,
2013-04-14 13:41:00,50.6,31.1,29.93,WNW,284,0.0,3.0,47,0.00,,,0.00,WeatherCatV1.15B25,2013-04-14 17:41:00,
2013-04-14 13:46:00,50.5,30.0,29.93,SW,221,1.0,7.0,45,0.00,,,0.00,WeatherCatV1.15B25,2013-04-14 17:46:00,
2013-04-14 13:51:00,50.7,31.2,29.93,NW,313,1.0,6.0,47,0.00,,,0.00,WeatherCatV1.15B25,2013-04-14 17:51:00,
2013-04-14 13:56:00,50.8,30.2,29.93,SW,219,1.0,3.0,45,0.00,,,0.00,WeatherCatV1.15B25,2013-04-14 17:56:00,
2013-04-14 14:01:00,51.0,30.4,29.94,West,274,4.0,7.0,45,0.00,,,0.00,WeatherCatV1.15B25,2013-04-14 18:01:00,
2013-04-14 14:06:00,50.9,29.8,29.94,WNW,282,4.0,8.0,44,0.00,,,0.00,WeatherCatV1.15B25,2013-04-14 18:06:00,
2013-04-14 14:11:00,50.6,30.1,29.94,NW,324,1.0,8.0,45,0.00,,,0.00,WeatherCatV1.15B25,2013-04-14 18:11:00,
2013-04-14 14:16:00,50.5,30.5,29.94,WNW,286,2.0,8.0,46,0.00,,,0.00,WeatherCatV1.15B25,2013-04-14 18:16:00,
2013-04-14 14:21:00,50.5,31.0,29.94,West,279,4.0,4.0,47,0.00,,,0.00,WeatherCatV1.15B25,2013-04-14 18:21:00,
2013-04-14 14:26:00,50.5,30.5,29.94,West,273,2.0,8.0,46,0.00,,,0.00,WeatherCatV1.15B25,2013-04-14 18:26:00,
2013-04-14 14:31:00,50.5,31.0,29.94,West,272,0.0,3.0,47,0.00,,,0.00,WeatherCatV1.15B25,2013-04-14 18:31:00,
2013-04-14 14:36:00,50.5,30.5,29.94,WNW,303,2.0,4.0,46,0.00,,,0.00,WeatherCatV1.15B25,2013-04-14 18:36:00,
2013-04-14 14:41:00,50.4,30.9,29.94,West,275,0.0,1.0,47,0.00,,,0.00,WeatherCatV1.15B25,2013-04-14 18:41:00,
2013-04-14 14:46:00,50.4,29.9,29.94,SW,236,3.0,4.0,45,0.00,,,0.00,WeatherCatV1.15B25,2013-04-14 18:46:00,
2013-04-14 14:51:00,50.3,30.3,29.94,West,266,1.0,1.0,46,0.00,,,0.00,WeatherCatV1.15B25,2013-04-14 18:51:00,
2013-04-14 14:56:00,50.1,30.1,29.94,ENE,67,2.0,6.0,46,0.00,,,0.00,WeatherCatV1.15B25,2013-04-14 18:56:00,
2013-04-14 15:01:00,49.9,30.0,29.94,South,182,2.0,5.0,46,0.00,,,0.00,WeatherCatV1.15B25,2013-04-14 19:01:00,
2013-04-14 15:06:00,49.7,29.8,29.94,WSW,252,2.0,7.0,46,0.00,,,0.00,WeatherCatV1.15B25,2013-04-14 19:06:00,
2013-04-14 15:11:00,49.7,30.3,29.94,West,275,1.0,4.0,47,0.00,,,0.00,WeatherCatV1.15B25,2013-04-14 19:11:00,
2013-04-14 15:16:00,49.7,30.3,29.94,West,269,0.0,3.0,47,0.00,,,0.00,WeatherCatV1.15B25,2013-04-14 19:16:00,
2013-04-14 15:21:00,49.8,30.4,29.94,West,259,1.0,4.0,47,0.00,,,0.00,WeatherCatV1.15B25,2013-04-14 19:21:00,
2013-04-14 15:26:00,49.9,30.5,29.94,West,264,2.0,4.0,47,0.00,,,0.00,WeatherCatV1.15B25,2013-04-14 19:26:00,
2013-04-14 15:31:00,50.2,30.2,29.94,NW,310,2.0,6.0,46,0.00,,,0.00,WeatherCatV1.15B25,2013-04-14 19:31:00,
2013-04-14 15:36:00,50.3,30.3,29.94,SW,222,1.0,3.0,46,0.00,,,0.00,WeatherCatV1.15B25,2013-04-14 19:36:00,
2013-04-14 15:41:00,50.6,30.6,29.94,WSW,241,1.0,3.0,46,0.00,,,0.00,WeatherCatV1.15B25,2013-04-14 19:41:00,
2013-04-14 15:46:00,51.2,30.6,29.95,WNW,286,0.0,3.0,45,0.00,,,0.00,WeatherCatV1.15B25,2013-04-14 19:46:00,
2013-04-14 15:51:00,51.2,30.0,29.95,West,271,0.0,0.0,44,0.00,,,0.00,WeatherCatV1.15B25,2013-04-14 19:51:00,
2013-04-14 15:56:00,51.0,29.3,29.95,WSW,248,1.0,2.0,43,0.00,,,0.00,WeatherCatV1.15B25,2013-04-14 19:56:00,
2013-04-14 16:01:00,50.7,29.6,29.95,WSW,246,0.0,5.0,44,0.00,,,0.00,WeatherCatV1.15B25,2013-04-14 20:01:00,
2013-04-14 16:06:00,50.6,29.5,29.95,West,270,4.0,6.0,44,0.00,,,0.00,WeatherCatV1.15B25,2013-04-14 20:06:00,
2013-04-14 16:11:00,50.5,28.3,29.95,WNW,284,4.0,5.0,42,0.00,,,0.00,WeatherCatV1.15B25,2013-04-14 20:11:00,
2013-04-14 16:16:00,50.6,28.4,29.95,WNW,300,3.0,8.0,42,0.00,,,0.00,WeatherCatV1.15B25,2013-04-14 20:16:00,
2013-04-14 16:21:00,50.6,27.8,29.95,WSW,255,1.0,10.0,41,0.00,,,0.00,WeatherCatV1.15B25,2013-04-14 20:21:00,
2013-04-14 16:26:00,51.1,28.8,29.95,WSW,248,0.0,4.0,42,0.00,,,0.00,WeatherCatV1.15B25,2013-04-14 20:26:00,
2013-04-14 16:31:00,51.3,28.4,29.95,West,261,3.0,5.0,41,0.00,,,0.00,WeatherCatV1.15B25,2013-04-14 20:31:00,
2013-04-14 16:36:00,51.0,28.7,29.96,WNW,298,2.0,2.0,42,0.00,,,0.00,WeatherCatV1.15B25,2013-04-14 20:36:00,
2013-04-14 16:41:00,50.8,29.1,29.96,WNW,294,1.0,4.0,43,0.00,,,0.00,WeatherCatV1.15B25,2013-04-14 20:41:00,
2013-04-14 16:46:00,50.5,28.3,29.96,West,261,6.0,7.0,42,0.00,,,0.00,WeatherCatV1.15B25,2013-04-14 20:46:00,
2013-04-14 16:51:00,50.4,28.2,29.97,WNW,282,2.0,5.0,42,0.00,,,0.00,WeatherCatV1.15B25,2013-04-14 20:51:00,
2013-04-14 16:56:00,50.1,28.5,29.96,West,273,2.0,7.0,43,0.00,,,0.00,WeatherCatV1.15B25,2013-04-14 20:56:00,
2013-04-14 17:01:00,49.9,27.7,29.97,WSW,252,3.0,3.0,42,0.00,,,0.00,WeatherCatV1.15B25,2013-04-14 21:01:00,
2013-04-14 17:06:00,49.8,27.6,29.97,WNW,283,2.0,8.0,42,0.00,,,0.00,WeatherCatV1.15B25,2013-04-14 21:06:00,
2013-04-14 17:11:00,49.6,28.0,29.97,WNW,298,3.0,8.0,43,0.00,,,0.00,WeatherCatV1.15B25,2013-04-14 21:11:00,
2013-04-14 17:16:00,49.4,27.9,29.98,West,277,5.0,8.0,43,0.00,,,0.00,WeatherCatV1.15B25,2013-04-14 21:16:00,
2013-04-14 17:21:00,49.3,28.3,29.98,WSW,251,0.0,2.0,44,0.00,,,0.00,WeatherCatV1.15B25,2013-04-14 21:21:00,
2013-04-14 17:26:00,49.3,28.3,29.99,West,261,1.0,3.0,44,0.00,,,0.00,WeatherCatV1.15B25,2013-04-14 21:26:00,
2013-04-14 17:31:00,49.8,28.8,29.99,WNW,295,4.0,7.0,44,0.00,,,0.00,WeatherCatV1.15B25,2013-04-14 21:31:00,
2013-04-14 17:36:00,49.5,29.0,29.99,WNW,296,2.0,3.0,45,0.00,,,0.00,WeatherCatV1.15B25,2013-04-14 21:36:00,
2013-04-14 17:41:00,49.2,27.7,29.99,WNW,296,2.0,6.0,43,0.00,,,0.00,WeatherCatV1.15B25,2013-04-14 21:41:00,
2013-04-14 17:46:00,49.1,27.6,29.99,WNW,289,1.0,2.0,43,0.00,,,0.00,WeatherCatV1.15B25,2013-04-14 21:46:00,
2013-04-14 17:51:00,49.2,27.7,29.99,WSW,251,1.0,3.0,43,0.00,,,0.00,WeatherCatV1.15B25,2013-04-14 21:51:00,
2013-04-14 17:56:00,49.6,28.0,30.00,South,185,1.0,5.0,43,0.00,,,0.00,WeatherCatV1.15B25,2013-04-14 21:56:00,
2013-04-14 18:01:00,49.7,28.1,30.00,West,263,3.0,5.0,43,0.00,,,0.00,WeatherCatV1.15B25,2013-04-14 22:01:00,
2013-04-14 18:06:00,49.5,25.6,30.00,WSW,255,4.0,8.0,39,0.00,,,0.00,WeatherCatV1.15B25,2013-04-14 22:06:00,
2013-04-14 18:11:00,49.4,26.1,30.01,NW,309,1.0,7.0,40,0.00,,,0.00,WeatherCatV1.15B25,2013-04-14 22:11:00,
2013-04-14 18:16:00,49.3,26.6,30.01,West,265,0.0,4.0,41,0.00,,,0.00,WeatherCatV1.15B25,2013-04-14 22:16:00,
2013-04-14 18:21:00,48.9,26.8,30.01,West,271,1.0,6.0,42,0.00,,,0.00,WeatherCatV1.15B25,2013-04-14 22:21:00,
2013-04-14 18:26:00,48.7,27.2,30.01,WNW,298,1.0,8.0,43,0.00,,,0.00,WeatherCatV1.15B25,2013-04-14 22:26:00,
2013-04-14 18:31:00,48.4,26.9,30.01,WSW,250,2.0,5.0,43,0.00,,,0.00,WeatherCatV1.15B25,2013-04-14 22:31:00,
2013-04-14 18:36:00,48.2,27.3,30.02,SW,228,3.0,5.0,44,0.00,,,0.00,WeatherCatV1.15B25,2013-04-14 22:36:00,
2013-04-14 18:41:00,48.0,27.1,30.02,West,279,1.0,3.0,44,0.00,,,0.00,WeatherCatV1.15B25,2013-04-14 22:41:00,
2013-04-14 18:46:00,47.9,27.0,30.02,West,259,1.0,4.0,44,0.00,,,0.00,WeatherCatV1.15B25,2013-04-14 22:46:00,
2013-04-14 18:51:00,47.8,28.0,30.02,West,272,0.0,3.0,46,0.00,,,0.00,WeatherCatV1.15B25,2013-04-14 22:51:00,
2013-04-14 18:56:00,47.6,27.9,30.02,West,263,0.0,4.0,46,0.00,,,0.00,WeatherCatV1.15B25,2013-04-14 22:56:00,
2013-04-14 19:01:00,47.4,27.7,30.02,WSW,257,2.0,6.0,46,0.00,,,0.00,WeatherCatV1.15B25,2013-04-14 23:01:00,
2013-04-14 19:06:00,47.2,27.0,30.03,WSW,252,4.0,6.0,45,0.00,,,0.00,WeatherCatV1.15B25,2013-04-14 23:06:00,
2013-04-14 19:11:00,47.0,26.8,30.03,WSW,246,3.0,5.0,45,0.00,,,0.00,WeatherCatV1.15B25,2013-04-14 23:11:00,
2013-04-14 19:16:00,46.9,26.7,30.03,WNW,286,0.0,5.0,45,0.00,,,0.00,WeatherCatV1.15B25,2013-04-14 23:16:00,
2013-04-14 19:21:00,46.7,27.0,30.04,WSW,250,0.0,6.0,46,0.00,,,0.00,WeatherCatV1.15B25,2013-04-14 23:21:00,
2013-04-14 19:26:00,46.6,27.5,30.05,West,277,0.0,3.0,47,0.00,,,0.00,WeatherCatV1.15B25,2013-04-14 23:26:00,
2013-04-14 19:31:00,46.3,27.7,30.05,WSW,241,0.0,1.0,48,0.00,,,0.00,WeatherCatV1.15B25,2013-04-14 23:31:00,
2013-04-14 19:36:00,46.1,27.0,30.05,West,259,0.0,3.0,47,0.00,,,0.00,WeatherCatV1.15B25,2013-04-14 23:36:00,
2013-04-14 19:41:00,46.1,28.0,30.05,WSW,250,1.0,5.0,49,0.00,,,0.00,WeatherCatV1.15B25,2013-04-14 23:41:00,
2013-04-14 19:46:00,45.9,27.8,30.06,SW,234,0.0,1.0,49,0.00,,,0.00,WeatherCatV1.15B25,2013-04-14 23:46:00,
2013-04-14 19:51:00,45.8,27.7,30.06,WNW,282,1.0,2.0,49,0.00,,,0.00,WeatherCatV1.15B25,2013-04-14 23:51:00,
2013-04-14 19:56:00,45.6,27.6,30.06,West,279,0.0,3.0,49,0.00,,,0.00,WeatherCatV1.15B25,2013-04-14 23:56:00,
2013-04-14 20:01:00,45.4,28.3,30.07,West,279,0.0,0.0,51,0.00,,,0.00,WeatherCatV1.15B25,2013-04-15 00:01:00,
2013-04-14 20:06:00,45.2,28.2,30.07,West,279,0.0,1.0,51,0.00,,,0.00,WeatherCatV1.15B25,2013-04-15 00:06:00,
2013-04-14 20:11:00,45.0,28.4,30.07,West,279,0.0,0.0,52,0.00,,,0.00,WeatherCatV1.15B25,2013-04-15 00:11:00,
2013-04-14 20:16:00,44.9,28.4,30.08,SW,226,0.0,1.0,52,0.00,,,0.00,WeatherCatV1.15B25,2013-04-15 00:16:00,
2013-04-14 20:21:00,44.7,28.2,30.08,SW,232,0.0,1.0,52,0.00,,,0.00,WeatherCatV1.15B25,2013-04-15 00:21:00,
2013-04-14 20:26:00,44.6,28.1,30.08,SW,229,0.0,0.0,52,0.00,,,0.00,WeatherCatV1.15B25,2013-04-15 00:26:00,
2013-04-14 20:31:00,44.3,28.3,30.08,SW,229,0.0,0.0,53,0.00,,,0.00,WeatherCatV1.15B25,2013-04-15 00:31:00,
2013-04-14 20:36:00,44.3,28.3,30.09,WSW,250,1.0,1.0,53,0.00,,,0.00,WeatherCatV1.15B25,2013-04-15 00:36:00,
2013-04-14 20:41:00,44.2,28.6,30.09,West,264,0.0,1.0,54,0.00,,,0.00,WeatherCatV1.15B25,2013-04-15 00:41:00,
2013-04-14 20:46:00,44.1,28.5,30.10,West,264,0.0,1.0,54,0.00,,,0.00,WeatherCatV1.15B25,2013-04-15 00:46:00,
2013-04-14 20:51:00,44.0,28.4,30.10,West,264,0.0,0.0,54,0.00,,,0.00,WeatherCatV1.15B25,2013-04-15 00:51:00,
2013-04-14 20:56:00,43.9,28.3,30.10,West,264,0.0,0.0,54,0.00,,,0.00,WeatherCatV1.15B25,2013-04-15 00:56:00,
2013-04-14 21:01:00,43.8,28.2,30.11,West,264,0.0,2.0,54,0.00,,,0.00,WeatherCatV1.15B25,2013-04-15 01:01:00,
2013-04-14 21:06:00,43.7,28.2,30.11,West,264,0.0,0.0,54,0.00,,,0.00,WeatherCatV1.15B25,2013-04-15 01:06:00,
2013-04-14 21:11:00,43.6,28.1,30.12,West,264,0.0,0.0,54,0.00,,,0.00,WeatherCatV1.15B25,2013-04-15 01:11:00,
2013-04-14 21:16:00,43.4,28.3,30.12,West,264,0.0,0.0,55,0.00,,,0.00,WeatherCatV1.15B25,2013-04-15 01:16:00,
2013-04-14 21:21:00,43.2,28.6,30.12,West,264,0.0,0.0,56,0.00,,,0.00,WeatherCatV1.15B25,2013-04-15 01:21:00,
2013-04-14 21:26:00,43.0,28.0,30.12,West,264,0.0,0.0,55,0.00,,,0.00,WeatherCatV1.15B25,2013-04-15 01:26:00,
2013-04-14 21:31:00,42.8,29.1,30.12,West,264,0.0,0.0,58,0.00,,,0.00,WeatherCatV1.15B25,2013-04-15 01:31:00,
2013-04-14 21:36:00,42.5,29.2,30.13,West,264,0.0,0.0,59,0.00,,,0.00,WeatherCatV1.15B25,2013-04-15 01:36:00,
2013-04-14 21:41:00,42.2,29.3,30.13,West,264,0.0,0.0,60,0.00,,,0.00,WeatherCatV1.15B25,2013-04-15 01:41:00,
2013-04-14 21:46:00,42.0,28.7,30.13,West,264,0.0,0.0,59,0.00,,,0.00,WeatherCatV1.15B25,2013-04-15 01:46:00,
2013-04-14 21:51:00,41.8,28.9,30.13,West,264,0.0,0.0,60,0.00,,,0.00,WeatherCatV1.15B25,2013-04-15 01:51:00,
2013-04-14 21:56:00,41.6,28.3,30.13,West,264,0.0,0.0,59,0.00,,,0.00,WeatherCatV1.15B25,2013-04-15 01:56:00,
2013-04-14 22:01:00,41.6,28.8,30.13,West,264,0.0,0.0,60,0.00,,,0.00,WeatherCatV1.15B25,2013-04-15 02:01:00,
2013-04-14 22:06:00,41.4,29.0,30.13,West,264,0.0,0.0,61,0.00,,,0.00,WeatherCatV1.15B25,2013-04-15 02:06:00,
2013-04-14 22:11:00,41.2,29.2,30.13,West,264,0.0,0.0,62,0.00,,,0.00,WeatherCatV1.15B25,2013-04-15 02:11:00,
2013-04-14 22:16:00,41.0,29.0,30.13,West,264,0.0,0.0,62,0.00,,,0.00,WeatherCatV1.15B25,2013-04-15 02:16:00,
2013-04-14 22:21:00,40.9,28.5,30.13,West,264,0.0,0.0,61,0.00,,,0.00,WeatherCatV1.15B25,2013-04-15 02:21:00,
2013-04-14 22:26:00,40.8,28.4,30.13,West,264,0.0,0.0,61,0.00,,,0.00,WeatherCatV1.15B25,2013-04-15 02:26:00,
2013-04-14 22:31:00,40.6,28.6,30.13,West,264,0.0,0.0,62,0.00,,,0.00,WeatherCatV1.15B25,2013-04-15 02:31:00,
2013-04-14 22:36:00,40.4,28.8,30.13,West,264,0.0,0.0,63,0.00,,,0.00,WeatherCatV1.15B25,2013-04-15 02:36:00,
2013-04-14 22:41:00,40.2,28.6,30.13,West,264,0.0,0.0,63,0.00,,,0.00,WeatherCatV1.15B25,2013-04-15 02:41:00,
2013-04-14 22:46:00,39.9,28.3,30.13,West,264,0.0,0.0,63,0.00,,,0.00,WeatherCatV1.15B25,2013-04-15 02:46:00,
2013-04-14 22:51:00,39.7,28.9,30.13,West,264,0.0,0.0,65,0.00,,,0.00,WeatherCatV1.15B25,2013-04-15 02:51:00,
2013-04-14 22:56:00,39.5,28.7,30.13,West,264,0.0,0.0,65,0.00,,,0.00,WeatherCatV1.15B25,2013-04-15 02:56:00,
2013-04-14 23:01:00,39.2,28.1,30.13,West,264,0.0,0.0,64,0.00,,,0.00,WeatherCatV1.15B25,2013-04-15 03:01:00,
2013-04-14 23:06:00,39.0,28.6,30.14,West,264,0.0,0.0,66,0.00,,,0.00,WeatherCatV1.15B25,2013-04-15 03:06:00,
2013-04-14 23:11:00,38.8,29.2,30.13,West,264,0.0,0.0,68,0.00,,,0.00,WeatherCatV1.15B25,2013-04-15 03:11:00,
2013-04-14 23:16:00,38.6,29.0,30.13,West,264,0.0,0.0,68,0.00,,,0.00,WeatherCatV1.15B25,2013-04-15 03:16:00,
2013-04-14 23:21:00,38.6,29.3,30.14,West,264,0.0,0.0,69,0.00,,,0.00,WeatherCatV1.15B25,2013-04-15 03:21:00,
2013-04-14 23:26:00,38.5,28.9,30.14,West,264,0.0,0.0,68,0.00,,,0.00,WeatherCatV1.15B25,2013-04-15 03:26:00,
2013-04-14 23:31:00,38.5,28.9,30.15,West,264,0.0,0.0,68,0.00,,,0.00,WeatherCatV1.15B25,2013-04-15 03:31:00,
2013-04-14 23:36:00,38.4,28.8,30.15,West,264,0.0,0.0,68,0.00,,,0.00,WeatherCatV1.15B25,2013-04-15 03:36:00,
2013-04-14 23:41:00,38.3,29.0,30.15,West,264,0.0,0.0,69,0.00,,,0.00,WeatherCatV1.15B25,2013-04-15 03:41:00,
2013-04-14 23:46:00,38.1,28.8,30.15,West,264,0.0,0.0,69,0.00,,,0.00,WeatherCatV1.15B25,2013-04-15 03:46:00,
2013-04-14 23:51:00,38.0,29.4,30.15,West,264,0.0,0.0,71,0.00,,,0.00,WeatherCatV1.15B25,2013-04-15 03:51:00,
2013-04-14 23:56:00,37.9,29.4,30.15,West,264,0.0,0.0,71,0.00,,,0.00,WeatherCatV1.15B25,2013-04-15 03:56:00,